Regional Weather Roundup
Issued by NWS Spokane, WA

Home | Current Version | Previous Version | Text Only | Print | Product List | Glossary On
Versions: 1 2 3 4 5 6 7 8 9 10 11 12 13 14 15 16 17 18 19 20 21 22 23 24 25 26 27 28 29 30 31 32 33 34 35 36 37 38 39 40 41 42 43 44 45 46 47 48 49 50
000
NZUS01 KOTX 240410
RWROTX
EASTERN WASHINGTON/NORTHERN IDAHO ROUNDUP
NATIONAL WEATHER SERVICE, SPOKANE WA
900 PM PDT WED APR 23 2014

Note: "fair" indicated few or no clouds below 12,000 feet with no
significant weather and/or obstructions to visibility.

...NORTHEAST WASHINGTON AND NORTHERN IDAHO PANHANDLE...

CITY           SKY/WX    TMP DP  RH WIND       PRES   REMARKS
SPOKANE INTL   CLOUDY    43  36  76 S7        29.84R
SPOKANE DOWNTO CLOUDY    47  36  65 SW10      29.86R
COEUR D ALENE  CLOUDY    41  36  81 S7        29.86F
DEER PARK      MOCLDY    44  35  70 S8        29.84R
SANDPOINT      CLOUDY    41  41 100 CALM      29.86R

...SOUTHEAST WASHINGTON AND SOUTHERN IDAHO PANHANDLE...

CITY           SKY/WX    TMP DP  RH WIND       PRES   REMARKS
WALLA WALLA    CLOUDY    54  40  59 S8        29.85R
PULLMAN/MOSCOW CLOUDY    39  37  92 E14       29.89S
LEWISTON       CLOUDY    45  36  70 E8        29.90R
LOWELL           N/A     43  42  97 CALM      29.97S

...COLUMBIA BASIN...

CITY           SKY/WX    TMP DP  RH WIND       PRES   REMARKS
EPHRATA        CLOUDY    50  42  74 S13       29.79S
MOSES LAKE     LGT RAIN  50  42  74 S10       29.81S
TRI CITIES     LGT RAIN  53  48  83 SE8       29.83S
HERMISTON      LGT RAIN  54  46  74 S5        29.82S
PENDLETON      CLOUDY    52  42  69 SE6       29.83R

...EAST SLOPES CASCADES...

CITY           SKY/WX    TMP DP  RH WIND       PRES   REMARKS
THE DALLES     LGT RAIN  51  48  89 E8        29.81F
YAKIMA         CLOUDY    53  41  63 S9        29.78F
ELLENSBURG     LGT RAIN  48  41  76 CALM      29.78S
WENATCHEE      LGT RAIN  52  39  61 SE10      29.77R
OMAK           CLOUDY    52  35  52 SE15G21   29.76R

...SOUTHERN BRITISH COLUMBIA...

CITY           SKY/WX    TMP DP  RH WIND       PRES   REMARKS
PENTICTON      PTCLDY    45  32  61 CALM      29.73R
CASTLEGAR      PTCLDY    43  34  70 S5        29.81R
CRANBROOK      PTCLDY    41  21  45 SW9       29.75

...WESTERN MONTANA...

CITY           SKY/WX    TMP DP  RH WIND       PRES   REMARKS
MISSOULA       LGT RAIN  40  34  79 CALM      29.90R

...NEIGHBORING CITIES...

CITY           SKY/WX    TMP DP  RH WIND       PRES   REMARKS
SEATTLE        CLOUDY    48  45  89 SE9       29.71F
CALGARY        PTCLDY    37  32  81 S5        29.62R



USA.gov is the U.S. government's official web portal to all federal, state and local government web resources and services.